Location: Long Island Community Building
(39.9491°N, 99.5338°W)
Time: 08:44:28
(UTC+00:00)

Cosmos 1140 Rocket - Pass Details

Date: 06 December 2019
Orbit: 744 x 768 km, 74.1° (Epoch: 17 January)

Event Time Altitude Azimuth Distance (km) Brightness Sun altitude
Exits shadow 12:31:17 - 334° (NNW) 2,361 5.6 -13.8°
Reaches altitude 10° 12:31:28 10° 333° (NNW) 2,292 5.6 -13.8°
Maximum altitude 12:36:34 59° 255° (WSW) 879 3.5 -12.9°
Drops below altitude 10° 12:41:40 10° 177° (S) 2,291 6.3 -11.9°
Sets 12:44:03 0° 174° (S) 3,215 7.1 -11.5°
